Zurück zum Katalog

COSMOS 1327

AktivMilitärLEO
NORAD 12982·PAYLOAD·🇷🇺 Russia

Gestartet Nov 28, 1981 von Plesetsk Cosmodrome

Loading…

Nächste Überflüge (nächste 24 Stunden)

TLE

AktuellSource: Space-Track

Epoche: Sep 14, 2026, 04:16 UTC

1 12982U 81116H   26257.17808054  .00000003  00000-0  15446-3 0  9990
2 12982  73.9834 164.2840 0077012 349.9957  80.6728 12.31648050 13977

Verfolge COSMOS 1327 in Echtzeit mit AllMySat

Download on the App Store